Year,Month,Day,Hour,Minute,Value (Times are PST for temperature in C)
2011,06,25,00,00,9.20
2011,06,25,00,01,9.20
2011,06,25,00,02,9.20
2011,06,25,00,03,9.20
2011,06,25,00,04,9.20
2011,06,25,00,05,9.20
2011,06,25,00,06,9.20
2011,06,25,00,07,9.20
2011,06,25,00,08,9.20
2011,06,25,00,09,9.20
2011,06,25,00,10,9.20
2011,06,25,00,11,9.20
2011,06,25,00,12,9.10
2011,06,25,00,13,9.10
2011,06,25,00,14,9.10
2011,06,25,00,15,9.10
2011,06,25,00,16,9.10
2011,06,25,00,17,9.10
2011,06,25,00,18,9.10
2011,06,25,00,19,9.10
2011,06,25,00,20,9.10
2011,06,25,00,21,9.10
2011,06,25,00,22,9.10
2011,06,25,00,23,9.10
2011,06,25,00,24,9.10
2011,06,25,00,25,9.10
2011,06,25,00,26,9.10
2011,06,25,00,27,9.10
2011,06,25,00,28,9.10
2011,06,25,00,29,9.10
2011,06,25,00,30,9.10
2011,06,25,00,31,9.10
2011,06,25,00,32,9.10
2011,06,25,00,33,9.10
2011,06,25,00,34,9.10
2011,06,25,00,35,9.10
2011,06,25,00,36,9.10
2011,06,25,00,37,9.10
2011,06,25,00,38,9.10
2011,06,25,00,39,9.10
2011,06,25,00,40,9.10
2011,06,25,00,41,9.10
2011,06,25,00,42,9.00
2011,06,25,00,43,9.00
2011,06,25,00,44,9.00
2011,06,25,00,45,9.00
2011,06,25,00,46,9.00
2011,06,25,00,47,9.00
2011,06,25,00,48,9.00
2011,06,25,00,49,8.90
2011,06,25,00,50,8.90
2011,06,25,00,51,8.90
2011,06,25,00,52,8.90
2011,06,25,00,53,8.90
2011,06,25,00,54,8.90
2011,06,25,00,55,8.90
2011,06,25,00,56,8.90
2011,06,25,00,57,8.90
2011,06,25,00,58,8.80
2011,06,25,00,59,8.80
2011,06,25,01,00,8.80
2011,06,25,01,01,8.80
2011,06,25,01,02,8.80
2011,06,25,01,03,8.80
2011,06,25,01,04,8.80
2011,06,25,01,05,8.80
2011,06,25,01,06,8.80
2011,06,25,01,07,8.90
2011,06,25,01,08,8.90
2011,06,25,01,09,8.90
2011,06,25,01,10,8.90
2011,06,25,01,11,8.90
2011,06,25,01,12,8.90
2011,06,25,01,13,8.90
2011,06,25,01,14,8.90
2011,06,25,01,15,8.90
2011,06,25,01,16,8.90
2011,06,25,01,17,8.90
2011,06,25,01,18,8.90
2011,06,25,01,19,8.90
2011,06,25,01,20,8.90
2011,06,25,01,21,8.80
2011,06,25,01,22,8.80
2011,06,25,01,23,8.80
2011,06,25,01,24,8.80
2011,06,25,01,25,8.80
2011,06,25,01,26,8.90
2011,06,25,01,27,8.80
2011,06,25,01,28,8.80
2011,06,25,01,29,8.90
2011,06,25,01,30,8.90
2011,06,25,01,31,8.90
2011,06,25,01,32,8.90
2011,06,25,01,33,8.90
2011,06,25,01,34,8.90
2011,06,25,01,35,8.90
2011,06,25,01,36,8.90
2011,06,25,01,37,8.90
2011,06,25,01,38,8.90
2011,06,25,01,39,8.90
2011,06,25,01,40,8.90
2011,06,25,01,41,8.90
2011,06,25,01,42,8.90
2011,06,25,01,43,9.00
2011,06,25,01,44,9.00
2011,06,25,01,45,9.00
2011,06,25,01,46,9.00
2011,06,25,01,47,9.00
2011,06,25,01,48,9.00
2011,06,25,01,49,9.10
2011,06,25,01,50,9.10
2011,06,25,01,51,9.10
2011,06,25,01,52,9.10
2011,06,25,01,53,9.10
2011,06,25,01,54,9.10
2011,06,25,01,55,9.10
2011,06,25,01,56,9.10
2011,06,25,01,57,9.10
2011,06,25,01,58,9.10
2011,06,25,01,59,9.20
2011,06,25,02,00,9.20
2011,06,25,02,01,9.20
2011,06,25,02,02,9.20
2011,06,25,02,03,9.20
2011,06,25,02,04,9.30
2011,06,25,02,05,9.30
2011,06,25,02,06,9.30
2011,06,25,02,07,9.30
2011,06,25,02,08,9.30
2011,06,25,02,09,9.30
2011,06,25,02,10,9.30
2011,06,25,02,11,9.30
2011,06,25,02,12,9.30
2011,06,25,02,13,9.30
2011,06,25,02,14,9.30
2011,06,25,02,15,9.40
2011,06,25,02,16,9.40
2011,06,25,02,17,9.40
2011,06,25,02,18,9.40
2011,06,25,02,19,9.40
2011,06,25,02,20,9.40
2011,06,25,02,21,9.50
2011,06,25,02,22,9.50
2011,06,25,02,23,9.50
2011,06,25,02,24,9.50
2011,06,25,02,25,9.60
2011,06,25,02,26,9.60
2011,06,25,02,27,9.60
2011,06,25,02,28,9.70
2011,06,25,02,29,9.70
2011,06,25,02,30,9.70
2011,06,25,02,31,9.70
2011,06,25,02,32,9.70
2011,06,25,02,33,9.70
2011,06,25,02,34,9.80
2011,06,25,02,35,9.80
2011,06,25,02,36,9.80
2011,06,25,02,37,9.80
2011,06,25,02,38,9.80
2011,06,25,02,39,9.80
2011,06,25,02,40,9.80
2011,06,25,02,41,9.80
2011,06,25,02,42,9.80
2011,06,25,02,43,9.80
2011,06,25,02,44,9.80
2011,06,25,02,45,9.80
2011,06,25,02,46,9.80
2011,06,25,02,47,9.80
2011,06,25,02,48,9.90
2011,06,25,02,49,9.90
2011,06,25,02,50,9.90
2011,06,25,02,51,9.90
2011,06,25,02,52,9.90
2011,06,25,02,53,9.90
2011,06,25,02,54,9.90
2011,06,25,02,55,9.90
2011,06,25,02,56,9.90
2011,06,25,02,57,10.00
2011,06,25,02,58,10.00
2011,06,25,02,59,10.00
2011,06,25,03,00,10.00
2011,06,25,03,01,10.00
2011,06,25,03,02,10.00
2011,06,25,03,03,10.10
2011,06,25,03,04,10.10
2011,06,25,03,05,10.10
2011,06,25,03,06,10.20
2011,06,25,03,07,10.20
2011,06,25,03,08,10.20
2011,06,25,03,09,10.30
2011,06,25,03,10,10.30
2011,06,25,03,11,10.40
2011,06,25,03,12,10.50
2011,06,25,03,13,10.60
2011,06,25,03,14,10.70
2011,06,25,03,15,10.70
2011,06,25,03,16,10.80
2011,06,25,03,17,10.90
2011,06,25,03,18,11.00
2011,06,25,03,19,11.10
2011,06,25,03,20,11.20
2011,06,25,03,21,11.20
2011,06,25,03,22,11.30
2011,06,25,03,23,11.30
2011,06,25,03,24,11.40
2011,06,25,03,25,11.50
2011,06,25,03,26,11.50
2011,06,25,03,27,11.60
2011,06,25,03,28,11.60
2011,06,25,03,29,11.60
2011,06,25,03,30,11.60
2011,06,25,03,31,11.70
2011,06,25,03,32,11.70
2011,06,25,03,33,11.70
2011,06,25,03,34,11.60
2011,06,25,03,35,11.70
2011,06,25,03,36,11.70
2011,06,25,03,37,11.70
2011,06,25,03,38,11.70
2011,06,25,03,39,11.70
2011,06,25,03,40,11.70
2011,06,25,03,41,11.70
2011,06,25,03,42,11.70
2011,06,25,03,43,11.70
2011,06,25,03,44,11.70
2011,06,25,03,45,11.70
2011,06,25,03,46,11.70
2011,06,25,03,47,11.70
2011,06,25,03,48,11.70
2011,06,25,03,49,11.70
2011,06,25,03,50,11.70
2011,06,25,03,51,11.80
2011,06,25,03,52,11.80
2011,06,25,03,53,11.80
2011,06,25,03,54,11.80
2011,06,25,03,55,11.80
2011,06,25,03,56,11.80
2011,06,25,03,57,11.80
2011,06,25,03,58,11.80
2011,06,25,03,59,11.80
2011,06,25,04,00,11.80
2011,06,25,04,01,11.80
2011,06,25,04,02,11.80
2011,06,25,04,03,11.80
2011,06,25,04,04,11.80
2011,06,25,04,05,11.80
2011,06,25,04,06,11.80
2011,06,25,04,07,11.80
2011,06,25,04,08,11.80
2011,06,25,04,09,11.70
2011,06,25,04,10,11.70
2011,06,25,04,11,11.70
2011,06,25,04,12,11.70
2011,06,25,04,13,11.70
2011,06,25,04,14,11.70
2011,06,25,04,15,11.70
2011,06,25,04,16,11.70
2011,06,25,04,17,11.70
2011,06,25,04,18,11.70
2011,06,25,04,19,11.70
2011,06,25,04,20,11.70
2011,06,25,04,21,11.70
2011,06,25,04,22,11.70
2011,06,25,04,23,11.70
2011,06,25,04,24,11.70
2011,06,25,04,25,11.70
2011,06,25,04,26,11.70
2011,06,25,04,27,11.70
2011,06,25,04,28,11.70
2011,06,25,04,29,11.70
2011,06,25,04,30,11.70
2011,06,25,04,31,11.70
2011,06,25,04,32,11.70
2011,06,25,04,33,11.70
2011,06,25,04,34,11.70
2011,06,25,04,35,11.70
2011,06,25,04,36,11.70
2011,06,25,04,37,11.70
2011,06,25,04,38,11.70
2011,06,25,04,39,11.60
2011,06,25,04,40,11.60
2011,06,25,04,41,11.60
2011,06,25,04,42,11.50
2011,06,25,04,43,11.60
2011,06,25,04,44,11.60
2011,06,25,04,45,11.60
2011,06,25,04,46,11.60
2011,06,25,04,47,11.60
2011,06,25,04,48,11.60
2011,06,25,04,49,11.70
2011,06,25,04,50,11.70
2011,06,25,04,51,11.70
2011,06,25,04,52,11.70
2011,06,25,04,53,11.70
2011,06,25,04,54,11.70
2011,06,25,04,55,11.70
2011,06,25,04,56,11.70
2011,06,25,04,57,11.70
2011,06,25,04,58,11.70
2011,06,25,04,59,11.80
2011,06,25,05,00,11.80
2011,06,25,05,01,11.80
2011,06,25,05,02,11.80
2011,06,25,05,03,11.80
2011,06,25,05,04,11.80
2011,06,25,05,05,11.70
2011,06,25,05,06,11.70
2011,06,25,05,07,11.70
2011,06,25,05,08,11.80
2011,06,25,05,09,11.70
2011,06,25,05,10,11.70
2011,06,25,05,11,11.70
2011,06,25,05,12,11.70
2011,06,25,05,13,11.70
2011,06,25,05,14,11.70
2011,06,25,05,15,11.70
2011,06,25,05,16,11.70
2011,06,25,05,17,11.70
2011,06,25,05,18,11.70
2011,06,25,05,19,11.70
2011,06,25,05,20,11.70
2011,06,25,05,21,11.70
2011,06,25,05,22,11.60
2011,06,25,05,23,11.60
2011,06,25,05,24,11.60
2011,06,25,05,25,11.60
2011,06,25,05,26,11.50
2011,06,25,05,27,11.50
2011,06,25,05,28,11.50
2011,06,25,05,29,11.50
2011,06,25,05,30,11.40
2011,06,25,05,31,11.40
2011,06,25,05,32,11.30
2011,06,25,05,33,11.30
2011,06,25,05,34,11.30
2011,06,25,05,35,11.30
2011,06,25,05,36,11.30
2011,06,25,05,37,11.30
2011,06,25,05,38,11.20
2011,06,25,05,39,11.20
2011,06,25,05,40,11.20
2011,06,25,05,41,11.20
2011,06,25,05,42,11.20
2011,06,25,05,43,11.10
2011,06,25,05,44,11.10
2011,06,25,05,45,11.10
2011,06,25,05,46,11.10
2011,06,25,05,47,11.00
2011,06,25,05,48,11.00
2011,06,25,05,49,10.90
2011,06,25,05,50,10.90
2011,06,25,05,51,10.90
2011,06,25,05,52,10.90
2011,06,25,05,53,10.80
2011,06,25,05,54,10.80
2011,06,25,05,55,10.80
2011,06,25,05,56,10.80
2011,06,25,05,57,10.80
2011,06,25,05,58,10.70
2011,06,25,05,59,10.70
2011,06,25,06,00,10.70
2011,06,25,06,01,10.70
2011,06,25,06,02,10.70
2011,06,25,06,03,10.70
2011,06,25,06,04,10.60
2011,06,25,06,05,10.60
2011,06,25,06,06,10.60
2011,06,25,06,07,10.60
2011,06,25,06,08,10.60
2011,06,25,06,09,10.60
2011,06,25,06,10,10.60
2011,06,25,06,11,10.60
2011,06,25,06,12,10.50
2011,06,25,06,13,10.50
2011,06,25,06,14,10.50
2011,06,25,06,15,10.50
2011,06,25,06,16,10.40
2011,06,25,06,17,10.40
2011,06,25,06,18,10.40
2011,06,25,06,19,10.40
2011,06,25,06,20,10.40
2011,06,25,06,21,10.40
2011,06,25,06,22,10.40
2011,06,25,06,23,10.40
2011,06,25,06,24,10.40
2011,06,25,06,25,10.40
2011,06,25,06,26,10.40
2011,06,25,06,27,10.40
2011,06,25,06,28,10.40
2011,06,25,06,29,10.40
2011,06,25,06,30,10.40
2011,06,25,06,31,10.40
2011,06,25,06,32,10.40
2011,06,25,06,33,10.40
2011,06,25,06,34,10.40
2011,06,25,06,35,10.40
2011,06,25,06,36,10.50
2011,06,25,06,37,10.40
2011,06,25,06,38,10.40
2011,06,25,06,39,10.40
2011,06,25,06,40,10.50
2011,06,25,06,41,10.50
2011,06,25,06,42,10.50
2011,06,25,06,43,10.60
2011,06,25,06,44,10.60
2011,06,25,06,45,10.60
2011,06,25,06,46,10.60
2011,06,25,06,47,10.60
2011,06,25,06,48,10.60
2011,06,25,06,49,10.70
2011,06,25,06,50,10.70
2011,06,25,06,51,10.70
2011,06,25,06,52,10.70
2011,06,25,06,53,10.70
2011,06,25,06,54,10.70
2011,06,25,06,55,10.70
2011,06,25,06,56,10.70
2011,06,25,06,57,10.70
2011,06,25,06,58,10.70
2011,06,25,06,59,10.70
2011,06,25,07,00,10.70
2011,06,25,07,01,10.80
2011,06,25,07,02,10.80
2011,06,25,07,03,10.80
2011,06,25,07,04,10.80
2011,06,25,07,05,10.80
2011,06,25,07,06,10.80
2011,06,25,07,07,10.80
2011,06,25,07,08,10.90
2011,06,25,07,09,10.90
2011,06,25,07,10,10.90
2011,06,25,07,11,10.90
2011,06,25,07,12,10.90
2011,06,25,07,13,10.90
2011,06,25,07,14,10.90
2011,06,25,07,15,10.90
2011,06,25,07,16,10.90
2011,06,25,07,17,10.90
2011,06,25,07,18,11.00
2011,06,25,07,19,11.00
2011,06,25,07,20,11.00
2011,06,25,07,21,11.10
2011,06,25,07,22,11.10
2011,06,25,07,23,11.10
2011,06,25,07,24,11.10
2011,06,25,07,25,11.20
2011,06,25,07,26,11.20
2011,06,25,07,27,11.20
2011,06,25,07,28,11.20
2011,06,25,07,29,11.20
2011,06,25,07,30,11.30
2011,06,25,07,31,11.30
2011,06,25,07,32,11.30
2011,06,25,07,33,11.30
2011,06,25,07,34,11.30
2011,06,25,07,35,11.30
2011,06,25,07,36,11.40
2011,06,25,07,37,11.40
2011,06,25,07,38,11.40
2011,06,25,07,39,11.40
2011,06,25,07,40,11.40
2011,06,25,07,41,11.50
2011,06,25,07,42,11.50
2011,06,25,07,43,11.60
2011,06,25,07,44,11.60
2011,06,25,07,45,11.60
2011,06,25,07,46,11.70
2011,06,25,07,47,11.70
2011,06,25,07,48,11.70
2011,06,25,07,49,11.70
2011,06,25,07,50,11.80
2011,06,25,07,51,11.80
2011,06,25,07,52,11.80
2011,06,25,07,53,11.80
2011,06,25,07,54,11.90
2011,06,25,07,55,11.90
2011,06,25,07,56,11.90
2011,06,25,07,57,11.90
2011,06,25,07,58,12.00
2011,06,25,07,59,12.00
2011,06,25,08,00,12.00
2011,06,25,08,01,12.00
2011,06,25,08,02,12.00
2011,06,25,08,03,12.10
2011,06,25,08,04,12.10
2011,06,25,08,05,12.10
2011,06,25,08,06,12.10
2011,06,25,08,07,12.10
2011,06,25,08,08,12.20
2011,06,25,08,09,12.20
2011,06,25,08,10,12.20
2011,06,25,08,11,12.20
2011,06,25,08,12,12.20
2011,06,25,08,13,12.20
2011,06,25,08,14,12.20
2011,06,25,08,15,12.20
2011,06,25,08,16,12.20
2011,06,25,08,17,12.20
2011,06,25,08,18,12.30
2011,06,25,08,19,12.30
2011,06,25,08,20,12.30
2011,06,25,08,21,12.30
2011,06,25,08,22,12.40
2011,06,25,08,23,12.40
2011,06,25,08,24,12.40
2011,06,25,08,25,12.50
2011,06,25,08,26,12.50
2011,06,25,08,27,12.60
2011,06,25,08,28,12.60
2011,06,25,08,29,12.60
2011,06,25,08,30,12.70
2011,06,25,08,31,12.70
2011,06,25,08,32,12.80
2011,06,25,08,33,12.80
2011,06,25,08,34,12.80
2011,06,25,08,35,12.90
2011,06,25,08,36,12.90
2011,06,25,08,37,12.90
2011,06,25,08,38,12.90
2011,06,25,08,39,12.90
2011,06,25,08,40,12.90
2011,06,25,08,41,13.00
2011,06,25,08,42,13.00
2011,06,25,08,43,13.00
2011,06,25,08,44,13.00
2011,06,25,08,45,13.00
2011,06,25,08,46,13.00
2011,06,25,08,47,12.90
2011,06,25,08,48,12.90
2011,06,25,08,49,12.90
2011,06,25,08,50,12.80
2011,06,25,08,51,12.80
2011,06,25,08,52,12.80
2011,06,25,08,53,12.80
2011,06,25,08,54,12.70
2011,06,25,08,55,12.70
2011,06,25,08,56,12.70
2011,06,25,08,57,12.70
2011,06,25,08,58,12.70
2011,06,25,08,59,12.70
2011,06,25,09,00,12.70
2011,06,25,09,01,12.70
2011,06,25,09,02,12.70
2011,06,25,09,03,12.70
2011,06,25,09,04,12.70
2011,06,25,09,05,12.70
2011,06,25,09,06,12.60
2011,06,25,09,07,12.60
2011,06,25,09,08,12.60
2011,06,25,09,09,12.60
2011,06,25,09,10,12.70
2011,06,25,09,11,12.70
2011,06,25,09,12,12.70
2011,06,25,09,13,12.70
2011,06,25,09,14,12.70
2011,06,25,09,15,12.80
2011,06,25,09,16,12.80
2011,06,25,09,17,12.90
2011,06,25,09,18,12.90
2011,06,25,09,19,13.00
2011,06,25,09,20,13.00
2011,06,25,09,21,13.10
2011,06,25,09,22,13.20
2011,06,25,09,23,13.20
2011,06,25,09,24,13.20
2011,06,25,09,25,13.30
2011,06,25,09,26,13.30
2011,06,25,09,27,13.30
2011,06,25,09,28,13.30
2011,06,25,09,29,13.30
2011,06,25,09,30,13.20
2011,06,25,09,31,13.20
2011,06,25,09,32,13.20
2011,06,25,09,33,13.10
2011,06,25,09,34,13.10
2011,06,25,09,35,13.10
2011,06,25,09,36,13.10
2011,06,25,09,37,13.10
2011,06,25,09,38,13.10
2011,06,25,09,39,13.00
2011,06,25,09,40,13.00
2011,06,25,09,41,13.00
2011,06,25,09,42,13.00
2011,06,25,09,43,13.00
2011,06,25,09,44,13.00
2011,06,25,09,45,13.10
2011,06,25,09,46,13.20
2011,06,25,09,47,13.20
2011,06,25,09,48,13.20
2011,06,25,09,49,13.30
2011,06,25,09,50,13.30
2011,06,25,09,51,13.30
2011,06,25,09,52,13.40
2011,06,25,09,53,13.40
2011,06,25,09,54,13.40
2011,06,25,09,55,13.40
2011,06,25,09,56,13.40
2011,06,25,09,57,13.40
2011,06,25,09,58,13.40
2011,06,25,09,59,13.40
2011,06,25,10,00,13.40
2011,06,25,10,01,13.40
2011,06,25,10,02,13.40
2011,06,25,10,03,13.40
2011,06,25,10,04,13.40
2011,06,25,10,05,13.40
2011,06,25,10,06,13.40
2011,06,25,10,07,13.40
2011,06,25,10,08,13.40
2011,06,25,10,09,13.40
2011,06,25,10,10,13.40
2011,06,25,10,11,13.40
2011,06,25,10,12,13.40
2011,06,25,10,13,13.40
2011,06,25,10,14,13.40
2011,06,25,10,15,13.40
2011,06,25,10,16,13.40
2011,06,25,10,17,13.40
2011,06,25,10,18,13.50
2011,06,25,10,19,13.50
2011,06,25,10,20,13.50
2011,06,25,10,21,13.60
2011,06,25,10,22,13.60
2011,06,25,10,23,13.60
2011,06,25,10,24,13.70
2011,06,25,10,25,13.70
2011,06,25,10,26,13.70
2011,06,25,10,27,13.70
2011,06,25,10,28,13.70
2011,06,25,10,29,13.80
2011,06,25,10,30,13.80
2011,06,25,10,31,13.80
2011,06,25,10,32,13.80
2011,06,25,10,33,13.80
2011,06,25,10,34,13.80
2011,06,25,10,35,13.80
2011,06,25,10,36,13.80
2011,06,25,10,37,13.80
2011,06,25,10,38,13.90
2011,06,25,10,39,13.90
2011,06,25,10,40,13.90
2011,06,25,10,41,14.00
2011,06,25,10,42,14.00
2011,06,25,10,43,14.10
2011,06,25,10,44,14.10
2011,06,25,10,45,14.20
2011,06,25,10,46,14.20
2011,06,25,10,47,14.20
2011,06,25,10,48,14.30
2011,06,25,10,49,14.30
2011,06,25,10,50,14.40
2011,06,25,10,51,14.40
2011,06,25,10,52,14.50
2011,06,25,10,53,14.60
2011,06,25,10,54,14.60
2011,06,25,10,55,14.70
2011,06,25,10,56,14.70
2011,06,25,10,57,14.80
2011,06,25,10,58,14.80
2011,06,25,10,59,14.80
2011,06,25,11,00,14.80
2011,06,25,11,01,14.80
2011,06,25,11,02,14.80
2011,06,25,11,03,14.80
2011,06,25,11,04,14.80
2011,06,25,11,05,14.70
2011,06,25,11,06,14.60
2011,06,25,11,07,14.60
2011,06,25,11,08,14.50
2011,06,25,11,09,14.50
2011,06,25,11,10,14.50
2011,06,25,11,11,14.50
2011,06,25,11,12,14.50
2011,06,25,11,13,14.40
2011,06,25,11,14,14.40
2011,06,25,11,15,14.40
2011,06,25,11,16,14.40
2011,06,25,11,17,14.40
2011,06,25,11,18,14.40
2011,06,25,11,19,14.40
2011,06,25,11,20,14.40
2011,06,25,11,21,14.40
2011,06,25,11,22,14.40
2011,06,25,11,23,14.40
2011,06,25,11,24,14.40
2011,06,25,11,25,14.40
2011,06,25,11,26,14.40
2011,06,25,11,27,14.40
2011,06,25,11,28,14.40
2011,06,25,11,29,14.50
2011,06,25,11,30,14.50
2011,06,25,11,31,14.60
2011,06,25,11,32,14.60
2011,06,25,11,33,14.70
2011,06,25,11,34,14.80
2011,06,25,11,35,15.00
2011,06,25,11,36,15.10
2011,06,25,11,37,15.30
2011,06,25,11,38,15.40
2011,06,25,11,39,15.50
2011,06,25,11,40,15.70
2011,06,25,11,41,15.70
2011,06,25,11,42,15.80
2011,06,25,11,43,15.90
2011,06,25,11,44,15.90
2011,06,25,11,45,15.90
2011,06,25,11,46,15.90
2011,06,25,11,47,16.00
2011,06,25,11,48,16.10
2011,06,25,11,49,16.10
2011,06,25,11,50,16.20
2011,06,25,11,51,16.30
2011,06,25,11,52,16.30
2011,06,25,11,53,16.40
2011,06,25,11,54,16.50
2011,06,25,11,55,16.60
2011,06,25,11,56,16.60
2011,06,25,11,57,16.70
2011,06,25,11,58,16.70
2011,06,25,11,59,16.80
2011,06,25,12,00,16.80
2011,06,25,12,01,16.80
2011,06,25,12,02,16.70
2011,06,25,12,03,16.70
2011,06,25,12,04,16.60
2011,06,25,12,05,16.60
2011,06,25,12,06,16.60
2011,06,25,12,07,16.50
2011,06,25,12,08,16.50
2011,06,25,12,09,16.40
2011,06,25,12,10,16.40
2011,06,25,12,11,16.30
2011,06,25,12,12,16.30
2011,06,25,12,13,16.20
2011,06,25,12,14,16.20
2011,06,25,12,15,16.10
2011,06,25,12,16,16.10
2011,06,25,12,17,16.10
2011,06,25,12,18,16.00
2011,06,25,12,19,15.90
2011,06,25,12,20,15.90
2011,06,25,12,21,15.90
2011,06,25,12,22,16.00
2011,06,25,12,23,16.00
2011,06,25,12,24,16.00
2011,06,25,12,25,16.00
2011,06,25,12,26,16.00
2011,06,25,12,27,16.00
2011,06,25,12,28,15.90
2011,06,25,12,29,15.90
2011,06,25,12,30,15.90
2011,06,25,12,31,15.80
2011,06,25,12,32,15.80
2011,06,25,12,33,15.80
2011,06,25,12,34,15.70
2011,06,25,12,35,15.70
2011,06,25,12,36,15.70
2011,06,25,12,37,15.60
2011,06,25,12,38,15.60
2011,06,25,12,39,15.60
2011,06,25,12,40,15.60
2011,06,25,12,41,15.70
2011,06,25,12,42,15.60
2011,06,25,12,43,15.60
2011,06,25,12,44,15.70
2011,06,25,12,45,15.70
2011,06,25,12,46,15.70
2011,06,25,12,47,15.70
2011,06,25,12,48,15.80
2011,06,25,12,49,15.80
2011,06,25,12,50,15.90
2011,06,25,12,51,16.00
2011,06,25,12,52,16.10
2011,06,25,12,53,16.20
2011,06,25,12,54,16.20
2011,06,25,12,55,16.20
2011,06,25,12,56,16.30
2011,06,25,12,57,16.30
2011,06,25,12,58,16.30
2011,06,25,12,59,16.30
2011,06,25,13,00,16.40
2011,06,25,13,01,16.50
2011,06,25,13,02,16.60
2011,06,25,13,03,16.70
2011,06,25,13,04,16.70
2011,06,25,13,05,16.80
2011,06,25,13,06,16.90
2011,06,25,13,07,16.90
2011,06,25,13,08,16.90
2011,06,25,13,09,17.00
2011,06,25,13,10,16.90
2011,06,25,13,11,16.90
2011,06,25,13,12,16.90
2011,06,25,13,13,16.80
2011,06,25,13,14,16.70
2011,06,25,13,15,16.60
2011,06,25,13,16,16.60
2011,06,25,13,17,16.60
2011,06,25,13,18,16.50
2011,06,25,13,19,16.40
2011,06,25,13,20,16.30
2011,06,25,13,21,16.30
2011,06,25,13,22,16.30
2011,06,25,13,23,16.20
2011,06,25,13,24,16.10
2011,06,25,13,25,16.00
2011,06,25,13,26,15.90
2011,06,25,13,27,15.90
2011,06,25,13,28,15.90
2011,06,25,13,29,15.90
2011,06,25,13,30,15.90
2011,06,25,13,31,15.90
2011,06,25,13,32,15.90
2011,06,25,13,33,15.90
2011,06,25,13,34,15.90
2011,06,25,13,35,15.90
2011,06,25,13,36,15.90
2011,06,25,13,37,15.90
2011,06,25,13,38,16.00
2011,06,25,13,39,16.00
2011,06,25,13,40,16.10
2011,06,25,13,41,16.10
2011,06,25,13,42,16.10
2011,06,25,13,43,16.10
2011,06,25,13,44,16.10
2011,06,25,13,45,16.00
2011,06,25,13,46,16.00
2011,06,25,13,47,15.90
2011,06,25,13,48,15.90
2011,06,25,13,49,15.90
2011,06,25,13,50,16.00
2011,06,25,13,51,16.00
2011,06,25,13,52,16.00
2011,06,25,13,53,16.00
2011,06,25,13,54,16.00
2011,06,25,13,55,16.00
2011,06,25,13,56,15.90
2011,06,25,13,57,15.90
2011,06,25,13,58,15.90
2011,06,25,13,59,15.90
2011,06,25,14,00,15.90
2011,06,25,14,01,15.90
2011,06,25,14,02,16.00
2011,06,25,14,03,16.00
2011,06,25,14,04,16.10
2011,06,25,14,05,16.10
2011,06,25,14,06,16.10
2011,06,25,14,07,16.10
2011,06,25,14,08,16.10
2011,06,25,14,09,16.10
2011,06,25,14,10,16.00
2011,06,25,14,11,16.00
2011,06,25,14,12,16.00
2011,06,25,14,13,15.90
2011,06,25,14,14,15.90
2011,06,25,14,15,15.90
2011,06,25,14,16,15.90
2011,06,25,14,17,15.90
2011,06,25,14,18,15.90
2011,06,25,14,19,15.90
2011,06,25,14,20,15.90
2011,06,25,14,21,16.00
2011,06,25,14,22,16.00
2011,06,25,14,23,16.00
2011,06,25,14,24,16.10
2011,06,25,14,25,16.10
2011,06,25,14,26,16.10
2011,06,25,14,27,16.10
2011,06,25,14,28,16.10
2011,06,25,14,29,16.10
2011,06,25,14,30,16.10
2011,06,25,14,31,16.10
2011,06,25,14,32,16.10
2011,06,25,14,33,16.20
2011,06,25,14,34,16.20
2011,06,25,14,35,16.20
2011,06,25,14,36,16.30
2011,06,25,14,37,16.30
2011,06,25,14,38,16.30
2011,06,25,14,39,16.30
2011,06,25,14,40,16.30
2011,06,25,14,41,16.20
2011,06,25,14,42,16.20
2011,06,25,14,43,16.20
2011,06,25,14,44,16.20
2011,06,25,14,45,16.20
2011,06,25,14,46,16.20
2011,06,25,14,47,16.10
2011,06,25,14,48,16.10
2011,06,25,14,49,16.10
2011,06,25,14,50,16.10
2011,06,25,14,51,16.10
2011,06,25,14,52,16.10
2011,06,25,14,53,16.10
2011,06,25,14,54,16.10
2011,06,25,14,55,16.10
2011,06,25,14,56,16.10
2011,06,25,14,57,16.10
2011,06,25,14,58,16.20
2011,06,25,14,59,16.20
2011,06,25,15,00,16.20
2011,06,25,15,01,16.20
2011,06,25,15,02,16.20
2011,06,25,15,03,16.20
2011,06,25,15,04,16.20
2011,06,25,15,05,16.30
2011,06,25,15,06,16.30
2011,06,25,15,07,16.40
2011,06,25,15,08,16.50
2011,06,25,15,09,16.60
2011,06,25,15,10,16.70
2011,06,25,15,11,16.80
2011,06,25,15,12,16.90
2011,06,25,15,13,17.10
2011,06,25,15,14,17.20
2011,06,25,15,15,17.30
2011,06,25,15,16,17.40
2011,06,25,15,17,17.50
2011,06,25,15,18,17.60
2011,06,25,15,19,17.60
2011,06,25,15,20,17.60
2011,06,25,15,21,17.70
2011,06,25,15,22,17.70
2011,06,25,15,23,17.70
2011,06,25,15,24,17.70
2011,06,25,15,25,17.70
2011,06,25,15,26,17.70
2011,06,25,15,27,17.70
2011,06,25,15,28,17.60
2011,06,25,15,29,17.50
2011,06,25,15,30,17.40
2011,06,25,15,31,17.30
2011,06,25,15,32,17.20
2011,06,25,15,33,17.10
2011,06,25,15,34,16.90
2011,06,25,15,35,16.80
2011,06,25,15,36,16.80
2011,06,25,15,37,16.80
2011,06,25,15,38,16.70
2011,06,25,15,39,16.70
2011,06,25,15,40,16.70
2011,06,25,15,41,16.80
2011,06,25,15,42,16.80
2011,06,25,15,43,16.80
2011,06,25,15,44,16.80
2011,06,25,15,45,16.80
2011,06,25,15,46,16.80
2011,06,25,15,47,16.80
2011,06,25,15,48,16.80
2011,06,25,15,49,16.80
2011,06,25,15,50,16.80
2011,06,25,15,51,16.80
2011,06,25,15,52,16.80
2011,06,25,15,53,16.80
2011,06,25,15,54,16.80
2011,06,25,15,55,16.80
2011,06,25,15,56,16.80
2011,06,25,15,57,16.80
2011,06,25,15,58,16.80
2011,06,25,15,59,16.70
2011,06,25,16,00,16.70
2011,06,25,16,01,16.70
2011,06,25,16,02,16.70
2011,06,25,16,03,16.70
2011,06,25,16,04,16.70
2011,06,25,16,05,16.70
2011,06,25,16,06,16.70
2011,06,25,16,07,16.70
2011,06,25,16,08,16.70
2011,06,25,16,09,16.70
2011,06,25,16,10,16.70
2011,06,25,16,11,16.70
2011,06,25,16,12,16.70
2011,06,25,16,13,16.70
2011,06,25,16,14,16.70
2011,06,25,16,15,16.70
2011,06,25,16,16,16.70
2011,06,25,16,17,16.70
2011,06,25,16,18,16.70
2011,06,25,16,19,16.70
2011,06,25,16,20,16.60
2011,06,25,16,21,16.60
2011,06,25,16,22,16.60
2011,06,25,16,23,16.60
2011,06,25,16,24,16.70
2011,06,25,16,25,16.70
2011,06,25,16,26,16.70
2011,06,25,16,27,16.80
2011,06,25,16,28,16.80
2011,06,25,16,29,16.80
2011,06,25,16,30,16.80
2011,06,25,16,31,16.90
2011,06,25,16,32,16.90
2011,06,25,16,33,16.90
2011,06,25,16,34,16.90
2011,06,25,16,35,16.90
2011,06,25,16,36,16.90
2011,06,25,16,37,17.00
2011,06,25,16,38,17.00
2011,06,25,16,39,17.00
2011,06,25,16,40,17.10
2011,06,25,16,41,17.10
2011,06,25,16,42,17.10
2011,06,25,16,43,17.10
2011,06,25,16,44,17.10
2011,06,25,16,45,17.10
2011,06,25,16,46,17.10
2011,06,25,16,47,17.10
2011,06,25,16,48,17.10
2011,06,25,16,49,17.10
2011,06,25,16,50,17.10
2011,06,25,16,51,17.10
2011,06,25,16,52,17.10
2011,06,25,16,53,17.10
2011,06,25,16,54,17.00
2011,06,25,16,55,17.00
2011,06,25,16,56,16.90
2011,06,25,16,57,16.90
2011,06,25,16,58,16.90
2011,06,25,16,59,16.80
2011,06,25,17,00,16.80
2011,06,25,17,01,16.70
2011,06,25,17,02,16.70
2011,06,25,17,03,16.80
2011,06,25,17,04,16.80
2011,06,25,17,05,16.80
2011,06,25,17,06,16.80
2011,06,25,17,07,16.80
2011,06,25,17,08,16.80
2011,06,25,17,09,16.80
2011,06,25,17,10,16.80
2011,06,25,17,11,16.80
2011,06,25,17,12,16.70
2011,06,25,17,13,16.70
2011,06,25,17,14,16.60
2011,06,25,17,15,16.50
2011,06,25,17,16,16.40
2011,06,25,17,17,16.40
2011,06,25,17,18,16.30
2011,06,25,17,19,16.30
2011,06,25,17,20,16.30
2011,06,25,17,21,16.30
2011,06,25,17,22,16.30
2011,06,25,17,23,16.30
2011,06,25,17,24,16.30
2011,06,25,17,25,16.30
2011,06,25,17,26,16.30
2011,06,25,17,27,16.30